Location: Launay
(47.2429°N, 1.5727°E)
Time: 00:48:45
(UTC+00:00)

CZ-4 R/B - Pass Details

Date: 19 May 2025
Orbit: 499 x 550 km, 97.6° (Epoch: 18 June)

Event Time Altitude Azimuth Distance (km) Brightness Sun altitude
Rises 20:23:23 0° 199° (SSW) 2,715 4.6 -8.3°
Reaches altitude 10° 20:25:54 10° 215° (SW) 1,825 3.9 -8.6°
Maximum altitude 20:28:58 22° 267° (W) 1,249 3.7 -9.0°
Drops below altitude 10° 20:32:04 10° 318° (NW) 1,828 5.6 -9.4°
Sets 20:34:35 0° 334° (NNW) 2,720 6.4 -9.7°
